Temp
-10 -10 -10 -10 -11 -11 -12 -12 -11 -11 -12 -12 -12 -12 -13 -13 -13 -13 -13 -12 -12 -12 -12 -12 -12 -12 -12 -12 -12 -12 -12 -12 -12 -13 -13 -13 -13 -13 -14 -13 -13 -13 -12
-10 -10 -10 -11 -11 -12 -12 -12 -12 -12 -12 -12 -12 -13 -13 -13 -13 -13 -12 -12 -12 -12 -12 -12 -12 -12 -12 -12 -12 -12 -12 -12 -12 -12 -13 -13 -13 -13 -13 -13 -13 -13 -12
-10 -11 -11 -11 -12 -13 -12 -12 -13 -13 -13 -13 -13 -13 -13 -13 -13 -12 -12 -12 -12 -12 -12 -12 -12 -12 -11 -12 -12 -12 -12 -12 -13 -13 -13 -13 -13 -13 -13 -13 -13 -12 -12
-11 -11 -11 -12 -13 -13 -12 -12 -12 -12 -13 -13 -13 -12 -13 -13 -13 -12 -13 -12 -12 -12 -12 -12 -12 -11 -12 -12 -12 -12 -12 -13 -13 -13 -13 -13 -13 -13 -13 -13 -13 -13 -13
-12 -12 -12 -13 -13 -13 -13 -12 -12 -12 -13 -13 -13 -13 -13 -13 -13 -13 -12 -13 -12 -12 -12 -12 -12 -12 -13 -12 -12 -13 -13 -13 -13 -13 -13 -14 -14 -14 -14 -14 -13 -13 -13
-13 -13 -13 -13 -13 -13 -13 -13 -13 -13 -14 -13 -13 -13 -13 -13 -13 -13 -13 -12 -12 -12 -12 -12 -12 -13 -13 -13 -13 -13 -13 -14 -14 -13 -14 -14 -15 -14 -14 -14 -13 -13 -13
-13 -13 -13 -13 -13 -14 -14 -14 -14 -14 -14 -14 -13 -13 -13 -13 -13 -13 -13 -12 -12 -13 -13 -13 -13 -13 -13 -13 -13 -13 -13 -14 -14 -14 -15 -14 -15 -14 -14 -14 -13 -13 -13
-14 -14 -14 -14 -14 -14 -14 -14 -14 -14 -14 -14 -14 -13 -13 -13 -13 -13 -13 -13 -13 -13 -13 -14 -14 -14 -14 -14 -14 -14 -14 -14 -14 -15 -14 -15 -14 -14 -14 -14 -13 -14 -14
-14 -14 -14 -15 -14 -14 -14 -14 -14 -14 -14 -14 -14 -14 -14 -14 -14 -14 -14 -14 -14 -14 -14 -14 -14 -15 -15 -15 -15 -15 -15 -15 -15 -15 -15 -15 -14 -14 -14 -14 -14 -14 -14
-14 -14 -14 -14 -14 -14 -15 -15 -15 -14 -14 -14 -14 -14 -14 -14 -14 -14 -14 -14 -14 -14 -15 -15 -15 -15 -15 -15 -15 -15 -16 -16 -16 -15 -15 -15 -15 -15 -15 -14 -14 -14 -14
-14 -14 -15 -15 -15 -15 -15 -15 -14 -14 -14 -14 -14 -14 -14 -14 -14 -14 -14 -15 -15 -15 -16 -16 -16 -16 -16 -16 -16 -16 -16 -16 -16 -16 -16 -16 -15 -15 -15 -14 -14 -14 -14
-15 -15 -15 -15 -14 -14 -14 -14 -14 -14 -14 -14 -14 -14 -15 -15 -15 -15 -15 -16 -16 -16 -16 -17 -17 -17 -16 -16 -16 -17 -16 -17 -16 -16 -16 -15 -15 -15 -15 -15 -15 -15 -14
-15 -15 -15 -15 -14 -15 -15 -15 -15 -15 -15 -15 -15 -15 -15 -15 -16 -16 -16 -17 -18 -18 -17 -17 -17 -17 -17 -16 -16 -17 -17 -17 -16 -16 -16 -16 -15 -15 -15 -15 -15 -15 -15
-15 -15 -15 -15 -15 -15 -16 -15 -15 -15 -15 -15 -15 -16 -16 -16 -16 -16 -17 -18 -18 -19 -18 -18 -17 -18 -17 -17 -18 -18 -17 -16 -16 -16 -16 -15 -15 -15 -15 -15 -15 -16 -16
-15 -15 -15 -16 -16 -16 -15 -15 -16 -16 -16 -16 -16 -16 -17 -17 -16 -17 -17 -18 -18 -19 -18 -18 -18 -18 -19 -18 -18 -18 -16 -16 -16 -16 -15 -15 -15 -15 -15 -15 -15 -16 -16
-16 -16 -16 -16 -16 -16 -16 -17 -17 -17 -17 -17 -17 -18 -18 -18 -18 -18 -19 -19 -19 -19 -19 -19 -19 -19 -19 -18 -17 -17 -17 -16 -16 -16 -16 -16 -15 -15 -16 -15 -16 -16 -16
-16 -16 -16 -16 -16 -17 -17 -17 -17 -18 -18 -18 -18 -18 -19 -19 -19 -20 -20 -19 -20 -20 -19 -19 -19 -18 -18 -18 -17 -17 -17 -17 -16 -16 -16 -16 -15 -15 -16 -16 -17 -17 -16
-16 -16 -16 -17 -17 -18 -18 -18 -18 -19 -19 -19 -19 -19 -19 -19 -19 -19 -19 -19 -20 -20 -20 -19 -19 -18 -18 -18 -17 -17 -17 -17 -16 -16 -16 -16 -16 -16 -16 -16 -16 -16 -16
-16 -17 -17 -18 -18 -18 -18 -19 -19 -19 -19 -19 -19 -19 -19 -19 -19 -19 -19 -19 -19 -19 -19 -19 -18 -18 -18 -17 -17 -17 -17 -17 -17 -16 -16 -16 -16 -17 -16 -17 -17 -17 -17
-17 -17 -18 -19 -19 -19 -19 -19 -19 -19 -19 -19 -19 -19 -19 -19 -19 -19 -18 -19 -19 -18 -18 -18 -18 -18 -18 -17 -17 -17 -17 -17 -17 -17 -17 -16 -16 -17 -16 -17 -17 -17 -17
-17 -18 -18 -19 -19 -19 -19 -19 -19 -19 -19 -19 -19 -19 -19 -19 -19 -19 -18 -18 -18 -18 -18 -18 -18 -18 -18 -18 -17 -17 -17 -17 -17 -17 -17 -17 -16 -17 -17 -17 -17 -17 -17
-18 -18 -19 -19 -20 -19 -19 -19 -19 -19 -19 -19 -19 -19 -19 -19 -19 -19 -19 -19 -18 -18 -18 -18 -18 -18 -18 -18 -18 -17 -17 -17 -17 -17 -17 -17 -16 -16 -17 -16 -17 -17 -16
-19 -19 -19 -20 -20 -20 -20 -20 -20 -20 -20 -19 -19 -19 -19 -19 -19 -19 -19 -19 -19 -19 -19 -19 -18 -18 -18 -18 -18 -18 -18 -18 -17 -17 -17 -17 -17 -17 -17 -17 -17 -16 -16
-19 -20 -20 -20 -20 -20 -20 -20 -20 -20 -20 -20 -20 -19 -19 -19 -19 -19 -19 -19 -19 -19 -19 -19 -19 -19 -19 -18 -18 -18 -18 -18 -18 -18 -17 -17 -17 -17 -16 -17 -16 -16 -16
-20 -20 -20 -20 -20 -20 -20 -20 -20 -20 -20 -20 -20 -20 -19 -19 -19 -19 -19 -19 -19 -19 -19 -19 -19 -19 -19 -19 -19 -18 -18 -18 -18 -18 -18 -18 -17 -17 -17 -17 -17 -16 -16
-20 -21 -20 -20 -20 -21 -21 -21 -20 -20 -20 -20 -20 -20 -20 -20 -19 -20 -20 -20 -20 -20 -20 -20 -19 -19 -19 -19 -19 -19 -19 -19 -18 -18 -18 -18 -18 -17 -17 -17 -17 -17 -16
Height
5758 5760 5762 5763 5762 5761 5759 5758 5757 5755 5754 5752 5752 5750 5749 5748 5747 5746 5746 5743 5743 5741 5738 5735 5731 5726 5723 5719 5715 5710 5706 5702 5700 5699 5694 5690 5688 5684 5680 5677 5675 5674 5672
5752 5754 5756 5756 5755 5754 5754 5753 5751 5749 5748 5746 5744 5744 5744 5743 5742 5741 5739 5737 5736 5733 5731 5727 5722 5718 5714 5710 5706 5703 5699 5695 5691 5688 5684 5681 5677 5674 5672 5670 5667 5664 5661
5746 5748 5749 5749 5749 5749 5749 5747 5745 5744 5743 5740 5740 5740 5739 5739 5737 5735 5733 5731 5728 5726 5722 5718 5714 5710 5706 5700 5696 5693 5689 5685 5681 5678 5674 5670 5668 5665 5663 5659 5656 5653 5650
5740 5741 5742 5743 5743 5743 5743 5742 5741 5739 5738 5736 5735 5734 5733 5731 5729 5727 5725 5722 5720 5717 5712 5708 5704 5701 5696 5691 5687 5683 5679 5675 5671 5668 5665 5661 5657 5653 5650 5648 5647 5642 5639
5733 5734 5735 5736 5737 5736 5736 5736 5735 5734 5731 5730 5728 5728 5726 5723 5720 5718 5715 5713 5710 5706 5702 5698 5694 5691 5685 5680 5678 5673 5669 5665 5662 5658 5654 5651 5646 5644 5641 5637 5634 5632 5630
5726 5727 5729 5729 5729 5729 5729 5728 5727 5726 5724 5723 5721 5718 5716 5713 5711 5708 5705 5702 5698 5695 5691 5687 5683 5680 5675 5671 5667 5663 5659 5656 5652 5650 5645 5641 5637 5634 5631 5628 5624 5621 5621
5720 5721 5722 5723 5722 5722 5721 5720 5719 5718 5716 5715 5714 5711 5707 5703 5700 5697 5694 5690 5687 5684 5680 5676 5672 5670 5666 5661 5657 5652 5649 5647 5644 5640 5635 5631 5629 5625 5622 5618 5614 5611 5607
5714 5716 5716 5716 5715 5714 5713 5712 5711 5710 5708 5706 5705 5702 5698 5694 5690 5687 5683 5679 5676 5672 5669 5665 5662 5659 5655 5651 5647 5643 5639 5637 5633 5628 5624 5621 5618 5614 5611 5608 5605 5602 5598
5708 5708 5708 5707 5707 5706 5705 5704 5703 5701 5699 5697 5693 5690 5687 5682 5678 5674 5671 5666 5663 5660 5657 5653 5649 5646 5644 5640 5638 5635 5631 5627 5623 5620 5616 5613 5609 5605 5601 5598 5594 5591 5588
5701 5701 5701 5700 5700 5699 5697 5696 5695 5693 5690 5687 5683 5679 5675 5671 5666 5662 5658 5653 5649 5646 5643 5640 5637 5635 5633 5632 5629 5626 5624 5620 5617 5613 5608 5604 5600 5597 5592 5587 5582 5579 5574
5694 5694 5694 5693 5692 5690 5691 5690 5687 5684 5680 5677 5674 5669 5664 5660 5655 5649 5644 5639 5635 5632 5629 5627 5625 5624 5623 5622 5620 5618 5616 5614 5610 5607 5603 5599 5595 5589 5584 5579 5573 5566 5561
5689 5689 5689 5688 5687 5686 5684 5682 5679 5676 5673 5669 5665 5659 5654 5647 5642 5637 5632 5626 5622 5619 5617 5616 5615 5615 5614 5613 5612 5611 5609 5606 5603 5601 5598 5593 5588 5582 5576 5571 5564 5557 5550
5684 5685 5684 5683 5682 5681 5678 5676 5672 5668 5663 5659 5654 5649 5644 5638 5632 5627 5622 5615 5611 5608 5607 5607 5607 5607 5606 5605 5605 5603 5601 5598 5596 5595 5592 5587 5581 5575 5570 5564 5555 5546 5537
5680 5680 5679 5677 5676 5673 5669 5666 5662 5657 5652 5648 5645 5640 5634 5629 5624 5620 5615 5610 5605 5602 5601 5601 5601 5600 5599 5599 5598 5597 5596 5594 5592 5590 5586 5581 5575 5569 5562 5554 5545 5537 5526
5676 5675 5672 5670 5667 5665 5661 5657 5653 5649 5645 5641 5638 5633 5628 5623 5618 5614 5610 5606 5603 5601 5599 5598 5597 5595 5596 5596 5594 5593 5592 5590 5587 5584 5581 5576 5569 5562 5554 5546 5538 5529 5520
5670 5667 5665 5663 5661 5656 5654 5652 5648 5644 5640 5636 5632 5628 5623 5619 5615 5612 5608 5605 5601 5599 5598 5597 5596 5595 5594 5593 5592 5590 5588 5585 5582 5579 5575 5569 5563 5556 5549 5541 5532 5525 5520
5663 5661 5659 5656 5654 5652 5650 5646 5643 5639 5635 5632 5628 5625 5621 5618 5614 5611 5607 5605 5602 5600 5598 5597 5595 5594 5593 5591 5589 5587 5584 5582 5579 5575 5571 5566 5560 5552 5545 5537 5531 5525 5520
5657 5655 5653 5651 5649 5647 5644 5641 5638 5635 5631 5628 5625 5623 5620 5617 5614 5611 5608 5605 5603 5600 5598 5596 5594 5593 5591 5589 5586 5584 5581 5578 5575 5572 5567 5563 5556 5550 5544 5537 5531 5527 5523
5652 5650 5648 5646 5645 5642 5639 5636 5634 5632 5629 5626 5624 5621 5618 5615 5613 5610 5607 5604 5602 5599 5597 5595 5593 5591 5589 5586 5584 5581 5579 5576 5573 5570 5566 5561 5555 5550 5545 5539 5533 5528 5526
5648 5646 5644 5642 5641 5637 5635 5633 5631 5628 5626 5624 5622 5619 5617 5614 5611 5608 5605 5602 5600 5597 5595 5593 5591 5588 5586 5584 5581 5578 5575 5573 5570 5567 5564 5559 5555 5550 5546 5541 5537 5532 5529
5643 5642 5640 5638 5636 5633 5631 5629 5627 5625 5623 5621 5619 5616 5614 5611 5608 5605 5602 5599 5597 5594 5592 5590 5587 5585 5582 5579 5577 5574 5571 5569 5567 5565 5562 5558 5554 5550 5547 5543 5541 5538 5534
5639 5637 5635 5634 5631 5630 5628 5626 5624 5622 5620 5618 5615 5613 5610 5607 5604 5601 5598 5596 5593 5590 5588 5585 5582 5580 5578 5575 5572 5569 5567 5564 5562 5560 5558 5556 5554 5550 5547 5544 5542 5541 5539
5634 5632 5631 5630 5628 5626 5624 5622 5620 5618 5616 5614 5611 5609 5606 5603 5600 5596 5593 5590 5587 5584 5581 5578 5576 5573 5570 5568 5565 5563 5561 5558 5557 5556 5554 5553 5552 5549 5547 5545 5544 5542 5540
5629 5627 5626 5625 5623 5622 5620 5618 5616 5614 5612 5609 5606 5604 5601 5597 5594 5591 5588 5584 5581 5578 5574 5571 5568 5565 5562 5560 5558 5556 5554 5552 5550 5549 5548 5548 5548 5547 5546 5545 5543 5541 5541
5624 5621 5621 5620 5619 5617 5615 5613 5611 5609 5607 5604 5601 5598 5595 5592 5588 5585 5581 5577 5573 5569 5566 5563 5560 5556 5553 5550 5548 5546 5545 5543 5542 5541 5541 5541 5542 5542 5543 5542 5541 5539 5539
5618 5617 5616 5616 5614 5612 5610 5608 5606 5604 5601 5598 5595 5592 5588 5584 5581 5577 5573 5568 5564 5560 5557 5553 5550 5547 5543 5541 5538 5536 5534 5533 5532 5532 5532 5532 5534 5535 5537 5538 5537 5537 5536
Wind_Speed
32 33 35 36 38 40 37 34 36 38 33 32 31 26 24 20 23 26 28 28 30 31 33 35 38 40 44 45 46 48 49 49 45 40 41 39 38 36 33 35 36 35 34
33 35 35 37 37 35 32 33 33 33 30 28 23 22 24 24 26 27 31 33 35 37 39 41 42 44 47 48 49 49 50 50 47 43 42 40 39 38 37 35 37 37 36
35 34 35 36 35 32 30 29 28 25 23 22 27 34 35 35 35 37 37 38 40 41 42 43 44 47 49 48 48 48 49 48 46 44 41 41 41 40 37 37 38 37 37
35 34 34 34 33 33 34 31 31 29 29 30 31 33 37 40 40 39 39 40 43 43 44 44 46 48 46 47 47 47 47 46 43 41 41 41 40 40 40 40 38 40 38
33 33 33 33 34 34 33 34 35 37 35 35 36 37 37 38 40 40 41 42 43 44 46 47 46 46 44 44 45 45 45 42 41 40 40 40 40 40 41 41 41 38 36
31 32 33 34 33 33 35 38 38 38 38 39 38 39 42 46 46 46 44 44 45 46 46 45 44 42 42 42 43 43 42 39 40 41 40 39 39 40 39 39 38 36 33
32 32 33 34 34 37 39 38 35 38 42 42 42 43 44 43 46 46 46 46 45 45 45 43 42 43 44 43 43 41 39 39 41 41 39 39 37 37 36 35 35 35 36
30 32 34 34 34 33 33 34 34 35 38 40 43 43 42 44 45 44 45 46 45 44 43 44 45 45 44 42 42 41 38 40 40 40 39 37 36 35 34 34 34 35 37
32 33 33 32 33 33 34 33 37 40 39 39 37 38 42 45 45 46 46 46 47 48 48 48 45 44 41 40 40 40 36 36 37 38 36 34 34 35 37 38 38 39 40
33 34 33 37 37 38 28 26 28 32 35 37 40 42 44 45 47 49 51 51 51 49 47 43 40 39 38 39 38 35 31 33 34 32 32 32 34 38 40 41 43 43 43
28 27 26 22 19 18 24 29 32 35 37 40 42 44 47 49 52 53 52 50 48 46 43 41 41 40 39 37 35 30 29 29 30 29 29 30 36 37 40 40 43 44 44
16 12 18 21 24 27 28 30 33 35 37 39 43 46 48 49 48 47 47 47 46 42 39 38 36 34 33 31 29 27 28 29 31 27 27 30 31 35 39 41 43 44 48
14 19 20 20 22 25 27 29 31 36 39 41 42 43 45 42 41 38 40 37 35 31 28 27 27 26 24 25 24 24 25 24 20 22 24 28 31 35 38 38 41 41 41
16 18 19 21 23 25 28 32 35 36 37 36 36 37 37 37 34 34 32 30 24 20 19 18 19 20 21 16 13 11 16 18 17 20 22 26 31 35 36 38 34 39 44
16 18 20 22 26 29 31 32 32 32 31 29 30 31 30 27 26 25 23 22 19 18 18 19 20 13 8 10 12 15 16 17 18 21 24 27 33 35 36 30 33 39 30
17 20 22 25 26 27 28 27 27 26 25 23 22 22 22 22 23 20 16 15 14 9 10 10 10 12 12 14 14 14 16 17 21 24 27 30 34 35 28 29 36 29 21
20 22 22 24 25 24 22 24 23 20 19 20 18 18 16 17 16 16 14 12 11 11 7 9 9 9 12 14 15 15 17 19 22 25 27 29 31 32 27 30 28 20 16
19 20 23 24 23 23 22 21 20 20 19 19 18 17 16 17 16 17 15 16 13 13 14 14 15 15 14 16 17 17 18 21 22 23 26 28 32 23 27 25 21 16 13
19 22 23 23 22 23 22 21 20 18 16 15 16 14 14 17 16 15 16 16 16 15 16 14 16 16 16 16 16 17 19 19 19 21 24 26 30 22 24 25 21 14 11
21 22 22 22 23 23 21 19 18 18 17 17 17 17 16 16 15 15 16 16 16 15 16 16 16 16 17 17 18 19 19 20 21 21 23 26 32 24 16 17 19 19 13
20 21 22 24 23 20 18 18 18 18 17 17 17 16 16 16 16 17 17 18 19 19 20 20 21 21 21 22 22 22 22 22 22 21 22 23 26 30 8 6 13 19 18
19 19 20 18 17 17 18 17 17 17 16 16 16 17 17 17 18 19 20 21 22 23 23 24 24 24 24 24 24 25 25 25 24 23 22 21 20 25 15 5 6 11 5
19 19 19 19 18 18 17 17 17 16 17 17 17 18 18 20 21 23 24 25 26 27 27 28 28 28 28 27 27 26 26 27 26 24 22 20 18 19 24 6 8 7 6
19 19 19 18 18 18 17 17 17 18 18 18 19 20 22 23 25 26 28 29 30 30 31 31 31 31 31 30 30 28 28 27 27 26 24 20 17 16 15 15 12 6 5
18 16 17 18 18 19 18 18 18 19 20 20 22 23 25 27 29 30 32 33 33 34 34 34 34 34 34 35 34 33 31 30 28 28 26 23 17 16 13 13 10 7 5
18 18 19 20 20 19 19 20 20 21 22 23 25 27 29 31 33 35 36 36 36 37 37 37 37 37 38 37 37 35 34 33 31 29 29 28 20 18 16 12 12 11 8
Wind_Direction
255 260 265 272 277 280 286 292 293 291 291 287 284 286 277 282 292 296 292 290 292 294 296 299 303 308 309 308 307 309 307 305 305 302 300 301 301 299 296 295 292 288 283
252 258 265 270 272 277 284 286 287 291 289 292 302 297 292 293 284 278 280 281 285 292 299 302 304 305 305 303 305 304 302 302 301 301 300 302 301 296 297 295 293 292 289
251 256 262 267 271 273 278 278 283 284 283 287 290 286 282 281 281 277 277 279 287 292 295 299 301 302 300 301 301 302 300 299 300 300 300 299 297 294 296 298 297 296 292
249 255 261 266 269 273 272 275 280 278 279 284 285 288 282 277 278 284 286 288 288 291 297 299 301 298 298 299 299 297 297 298 300 300 299 299 296 297 298 297 297 297 296
249 256 262 266 268 271 273 275 275 276 279 281 284 283 284 283 286 289 289 288 290 294 298 299 296 296 298 298 298 298 297 298 298 297 296 298 297 297 297 297 296 294 294
250 257 263 267 271 276 275 273 275 277 279 279 280 283 286 283 284 287 288 291 294 295 295 293 296 299 298 300 300 300 299 298 296 295 293 294 295 297 297 294 293 293 291
254 262 269 272 276 276 276 276 275 274 274 280 282 287 287 287 287 288 292 293 293 293 292 294 294 294 295 298 301 301 298 297 294 294 293 293 297 297 295 294 295 298 301
261 268 269 270 271 275 276 272 271 276 280 280 283 284 286 288 290 291 291 290 290 289 289 289 290 292 293 296 298 298 295 296 296 295 295 300 300 300 299 297 299 302 302
262 263 263 259 265 271 274 275 275 280 286 286 286 290 294 293 293 293 293 293 291 290 290 290 288 290 292 297 298 294 292 295 295 297 299 300 302 304 305 306 306 304 302
263 267 265 264 266 267 277 287 286 287 293 295 296 296 296 297 298 297 295 294 293 292 290 288 287 287 289 293 296 290 291 294 296 299 303 308 309 308 307 307 307 306 306
271 265 274 281 285 297 283 288 295 298 299 299 298 299 299 297 296 298 298 297 295 291 287 284 280 281 283 288 292 288 291 292 293 298 300 303 302 303 305 309 310 308 310
263 290 278 281 282 285 291 295 295 295 296 299 300 300 300 300 301 301 300 298 294 289 287 284 284 287 284 285 287 284 288 286 287 295 308 302 304 306 308 309 307 308 311
273 271 280 288 291 291 291 293 296 300 301 302 301 301 300 301 301 302 309 307 302 291 287 286 286 284 284 286 288 282 288 291 298 310 309 314 313 308 308 315 315 314 314
276 283 286 293 298 301 301 301 303 305 306 304 305 306 305 304 303 301 310 310 308 299 291 286 285 286 285 288 289 301 314 308 309 316 321 322 316 321 326 326 324 322 325
282 294 304 308 308 308 308 309 309 306 303 303 306 306 307 312 317 321 318 316 312 307 303 293 288 295 307 313 321 316 308 312 320 328 329 327 330 333 332 335 328 328 333
305 312 312 309 308 311 312 311 307 305 306 309 314 313 320 324 326 326 324 334 333 335 359 347 331 327 329 317 311 309 316 327 333 330 330 332 337 340 342 343 338 347 349
308 308 308 311 314 313 311 310 311 316 315 318 324 322 331 338 334 332 326 320 333 330 338 326 300 305 320 331 321 324 328 331 331 335 337 336 344 347 353 348 351 357 12
306 308 314 314 312 310 310 311 313 319 324 324 323 316 326 333 337 342 347 336 339 348 351 340 333 327 322 319 322 327 330 334 336 339 340 345 350 356 356 356 350 7 15
309 312 310 309 306 307 312 314 312 312 316 322 321 328 330 329 336 336 334 337 348 343 339 338 332 326 322 320 321 324 326 329 334 340 343 353 356 353 356 3 3 7 7
312 312 308 304 300 305 306 307 309 308 311 314 314 316 319 318 320 322 322 327 328 325 323 321 317 315 318 319 321 321 323 329 332 337 342 353 359 351 6 13 12 15 23
311 307 303 296 298 303 303 303 303 306 308 309 311 313 316 320 324 325 325 324 323 322 320 319 318 317 316 315 316 317 318 319 321 327 333 345 355 354 3 2 29 41 32
306 307 301 297 300 301 302 303 303 305 307 308 310 313 316 321 323 323 323 321 320 319 317 316 314 312 310 308 308 307 308 309 311 316 322 332 343 347 355 333 331 0 7
303 299 295 297 297 297 299 300 300 302 304 307 311 314 318 322 323 323 323 321 321 319 317 316 313 312 310 309 307 306 305 303 303 305 308 313 325 335 341 4 0 333 0
295 296 295 294 293 293 295 297 300 303 306 310 313 317 319 321 322 322 321 319 318 316 314 314 312 311 310 308 306 303 300 298 297 298 298 299 301 308 319 330 314 315 312
293 291 290 290 290 292 296 298 301 304 307 309 312 314 317 318 319 318 318 316 315 314 313 312 311 310 309 307 305 302 298 294 291 290 290 290 286 285 292 313 298 282 265
287 284 286 287 288 293 295 298 301 304 307 309 313 314 316 317 317 315 315 314 313 311 311 309 309 308 305 304 302 300 296 292 287 282 280 280 277 271 268 272 296 267 243